| time (UTC) | temp C | wind direction | speed KPH | gust KPH | rain 1hr cm | rain 24hr cm | rain mn cm | humidity % | barometer mb |
| 20260510171008 | 26 | 82 | 8.0 | 12.9 | 0.00 | 0.61 | 0.00 | 76 | 1013.3 |
| 20260510170508 | 26 | 311 | 3.2 | 16.1 | 0.00 | 0.61 | 0.00 | 77 | 1013.4 |
| 20260510170008 | 26 | 121 | 3.2 | 16.1 | 0.00 | 0.61 | 0.00 | 77 | 1013.5 |
| 20260510165509 | 26 | 134 | 3.2 | 14.5 | 0.00 | 0.61 | 0.00 | 77 | 1013.5 |
| 20260510165009 | 26 | 169 | 14.5 | 19.3 | 0.00 | 0.61 | 0.00 | 77 | 1013.5 |
| 20260510164508 | 26 | 126 | 8.0 | 19.3 | 0.00 | 0.61 | 0.00 | 77 | 1013.6 |
| 20260510164008 | 26 | 107 | 6.4 | 11.3 | 0.00 | 0.61 | 0.00 | 77 | 1013.6 |
| 20260510163508 | 26 | 121 | 11.3 | 11.3 | 0.00 | 0.61 | 0.00 | 77 | 1013.6 |
| 20260510163008 | 26 | 20 | 1.6 | 12.9 | 0.00 | 0.61 | 0.00 | 78 | 1013.5 |
| 20260510162508 | 26 | 74 | 4.8 | 16.1 | 0.00 | 0.61 | 0.00 | 78 | 1013.5 |
| 20260510162008 | 26 | 328 | 1.6 | 16.1 | 0.00 | 0.61 | 0.00 | 78 | 1013.5 |
| 20260510161508 | 26 | 263 | 1.6 | 20.9 | 0.00 | 0.61 | 0.00 | 78 | 1013.5 |
| 20260510161007 | 26 | 82 | 14.5 | 20.9 | 0.00 | 0.61 | 0.00 | 78 | 1013.4 |
| 20260510160508 | 26 | 97 | 12.9 | 12.9 | 0.00 | 0.61 | 0.00 | 78 | 1013.4 |
| 20260510160007 | 26 | 113 | 3.2 | 12.9 | 0.00 | 0.61 | 0.00 | 78 | 1013.4 |
| 20260510155508 | 26 | 320 | 0.0 | 14.5 | 0.00 | 0.61 | 0.00 | 78 | 1013.4 |
| 20260510155007 | 25 | 344 | 4.8 | 14.5 | 0.00 | 0.61 | 0.00 | 78 | 1013.4 |
| 20260510154507 | 25 | 119 | 4.8 | 4.8 | 0.00 | 0.61 | 0.00 | 79 | 1013.3 |
| 20260510154007 | 25 | 206 | 4.8 | 11.3 | 0.00 | 0.61 | 0.00 | 79 | 1013.3 |
| 20260510153507 | 25 | 86 | 4.8 | 16.1 | 0.00 | 0.61 | 0.00 | 79 | 1013.3 |
| 20260510153007 | 25 | 108 | 16.1 | 16.1 | 0.00 | 0.61 | 0.00 | 79 | 1013.3 |
| 20260510152508 | 25 | 165 | 6.4 | 12.9 | 0.00 | 0.61 | 0.00 | 79 | 1013.3 |
| 20260510152037 | 25 | 109 | 11.3 | 11.3 | 0.00 | 0.61 | 0.00 | 79 | 1013.2 |
| 20260510151537 | 25 | 126 | 1.6 | 11.3 | 0.00 | 0.61 | 0.00 | 79 | 1013.2 |
| 20260510151037 | 25 | 134 | 4.8 | 11.3 | 0.00 | 0.61 | 0.00 | 79 | 1013.3 |
| 20260510150537 | 25 | 140 | 4.8 | 11.3 | 0.00 | 0.61 | 0.00 | 79 | 1013.2 |
| 20260510145036 | 25 | 115 | 1.6 | 6.4 | 0.00 | 0.61 | 0.00 | 79 | 1013.2 |
| 20260510144036 | 25 | 73 | 4.8 | 9.7 | 0.00 | 0.61 | 0.00 | 80 | 1012.8 |
| 20260510143036 | 24 | 105 | 4.8 | 8.0 | 0.00 | 0.61 | 0.00 | 80 | 1012.9 |
| 20260510142536 | 24 | 137 | 6.4 | 9.7 | 0.00 | 0.61 | 0.00 | 80 | 1012.8 |
| 20260510142036 | 24 | 138 | 4.8 | 9.7 | 0.00 | 0.61 | 0.00 | 80 | 1012.7 |
| 20260510141036 | 24 | 140 | 0.0 | 9.7 | 0.00 | 0.61 | 0.00 | 80 | 1012.6 |
| 20260510140536 | 23 | 117 | 1.6 | 9.7 | 0.00 | 0.61 | 0.00 | 80 | 1012.6 |
| 20260510135536 | 23 | 96 | 0.0 | 1.6 | 0.00 | 0.64 | 0.00 | 80 | 1012.4 |
| 20260510135036 | 23 | 94 | 0.0 | 6.4 | 0.00 | 0.64 | 0.00 | 81 | 1012.4 |
| 20260510133536 | 23 | 121 | 0.0 | 4.8 | 0.00 | 0.64 | 0.00 | 81 | 1012.3 |
| 20260510133036 | 23 | 78 | 1.6 | 8.0 | 0.00 | 0.64 | 0.00 | 81 | 1012.2 |
| 20260510132036 | 22 | 117 | 0.0 | 1.6 | 0.00 | 0.64 | 0.00 | 81 | 1011.9 |
| 20260510131036 | 22 | 153 | 1.6 | 3.2 | 0.00 | 0.64 | 0.00 | 81 | 1011.8 |
| 20260510130536 | 22 | 116 | 0.0 | 4.8 | 0.00 | 0.64 | 0.00 | 81 | 1011.5 |
| 20260510125036 | 21 | 121 | 0.0 | 4.8 | 0.00 | 0.64 | 0.00 | 82 | 1011.3 |
| 20260510124536 | 21 | 121 | 1.6 | 4.8 | 0.00 | 0.64 | 0.00 | 81 | 1011.3 |
| 20260510124036 | 21 | 127 | 0.0 | 0.0 | 0.00 | 0.64 | 0.00 | 82 | 1011.2 |
| 20260510123535 | 21 | 127 | 0.0 | 0.0 | 0.00 | 0.64 | 0.00 | 82 | 1011.2 |
| 20260510122535 | 21 | 127 | 0.0 | 0.0 | 0.00 | 0.64 | 0.00 | 82 | 1011.1 |
| 20260510122035 | 21 | 127 | 0.0 | 0.0 | 0.00 | 0.64 | 0.00 | 82 | 1011.0 |
| 20260510121535 | 21 | 127 | 0.0 | 0.0 | 0.00 | 0.64 | 0.00 | 82 | 1010.8 |
| 20260510121035 | 21 | 127 | 0.0 | 1.6 | 0.00 | 0.64 | 0.00 | 82 | 1010.7 |
| 20260510120535 | 21 | 127 | 1.6 | 1.6 | 0.00 | 0.64 | 0.00 | 82 | 1010.7 |
| 20260510120035 | 21 | 127 | 0.0 | 0.0 | 0.00 | 0.64 | 0.00 | 82 | 1010.6 |
| 20260510115535 | 21 | 127 | 0.0 | 1.6 | 0.00 | 0.64 | 0.00 | 82 | 1010.7 |
| 20260510115035 | 21 | 127 | 0.0 | 3.2 | 0.00 | 0.64 | 0.00 | 82 | 1010.5 |
| 20260510114535 | 21 | 127 | 1.6 | 3.2 | 0.00 | 0.64 | 0.00 | 82 | 1010.5 |
| 20260510113535 | 21 | 127 | 0.0 | 1.6 | 0.00 | 0.64 | 0.00 | 82 | 1010.4 |
| 20260510113035 | 21 | 127 | 0.0 | 3.2 | 0.00 | 0.64 | 0.00 | 82 | 1010.4 |
| 20260510112535 | 21 | 128 | 3.2 | 3.2 | 0.00 | 0.64 | 0.00 | 82 | 1010.3 |
| 20260510112035 | 21 | 221 | 0.0 | 1.6 | 0.00 | 0.64 | 0.00 | 82 | 1010.1 |
| 20260510111535 | 21 | 190 | 0.0 | 1.6 | 0.00 | 0.64 | 0.00 | 82 | 1010.1 |
| 20260510111035 | 21 | 260 | 0.0 | 1.6 | 0.00 | 0.64 | 0.00 | 82 | 1010.2 |
| 20260510110534 | 21 | 260 | 0.0 | 4.8 | 0.00 | 0.64 | 0.00 | 82 | 1010.2 |
| 20260510110035 | 21 | 205 | 1.6 | 6.4 | 0.00 | 0.64 | 0.00 | 82 | 1009.9 |
| 20260510105535 | 21 | 187 | 4.8 | 6.4 | 0.00 | 0.64 | 0.00 | 82 | 1009.8 |
| 20260510105034 | 21 | 231 | 3.2 | 4.8 | 0.00 | 0.64 | 0.00 | 82 | 1009.7 |
| 20260510104534 | 21 | 190 | 4.8 | 12.9 | 0.00 | 0.64 | 0.00 | 82 | 1009.7 |
| 20260510104034 | 21 | 211 | 1.6 | 12.9 | 0.00 | 0.64 | 0.00 | 82 | 1009.6 |
| 20260510103034 | 21 | 272 | 1.6 | 8.0 | 0.00 | 0.64 | 0.00 | 82 | 1009.6 |
| 20260510102534 | 21 | 197 | 1.6 | 8.0 | 0.00 | 0.64 | 0.00 | 82 | 1009.6 |
| 20260510101534 | 21 | 223 | 1.6 | 1.6 | 0.00 | 0.64 | 0.00 | 82 | 1009.8 |
| 20260510101034 | 21 | 219 | 0.0 | 3.2 | 0.00 | 0.64 | 0.00 | 81 | 1009.8 |
| 20260510100534 | 21 | 222 | 1.6 | 6.4 | 0.00 | 0.64 | 0.00 | 81 | 1009.8 |
| 20260510100034 | 21 | 246 | 0.0 | 9.7 | 0.00 | 0.64 | 0.00 | 82 | 1009.6 |
| 20260510095534 | 21 | 167 | 1.6 | 9.7 | 0.00 | 0.64 | 0.00 | 82 | 1009.5 |
| 20260510095034 | 21 | 188 | 3.2 | 4.8 | 0.00 | 0.64 | 0.00 | 82 | 1009.6 |
| 20260510094534 | 21 | 236 | 0.0 | 9.7 | 0.00 | 0.64 | 0.00 | 82 | 1009.7 |
| 20260510094034 | 21 | 207 | 9.7 | 9.7 | 0.00 | 0.64 | 0.00 | 82 | 1009.7 |
| 20260510093534 | 21 | 232 | 3.2 | 4.8 | 0.00 | 0.64 | 0.00 | 82 | 1009.7 |
| 20260510093034 | 21 | 182 | 1.6 | 3.2 | 0.00 | 0.64 | 0.00 | 82 | 1009.7 |
| 20260510092534 | 21 | 219 | 0.0 | 3.2 | 0.00 | 0.64 | 0.00 | 82 | 1009.7 |
| 20260510092034 | 21 | 265 | 0.0 | 6.4 | 0.00 | 0.64 | 0.00 | 82 | 1009.7 |
| 20260510091534 | 21 | 221 | 1.6 | 8.0 | 0.00 | 0.64 | 0.00 | 82 | 1009.7 |
| 20260510090034 | 21 | 150 | 1.6 | 4.8 | 0.00 | 0.66 | 0.00 | 82 | 1009.7 |
| 20260510085534 | 21 | 129 | 0.0 | 0.0 | 0.00 | 0.66 | 0.00 | 82 | 1009.6 |
| 20260510085033 | 21 | 187 | 0.0 | 0.0 | 0.00 | 0.66 | 0.00 | 82 | 1009.6 |
| 20260510084534 | 21 | 263 | 0.0 | 0.0 | 0.00 | 0.66 | 0.00 | 82 | 1009.7 |
| 20260510084034 | 21 | 167 | 0.0 | 0.0 | 0.00 | 0.69 | 0.00 | 82 | 1009.7 |
| 20260510083533 | 21 | 167 | 0.0 | 0.0 | 0.00 | 0.69 | 0.00 | 82 | 1009.7 |
| 20260510082533 | 21 | 167 | 0.0 | 0.0 | 0.00 | 0.69 | 0.00 | 81 | 1009.6 |
| 20260510082033 | 21 | 167 | 0.0 | 0.0 | 0.00 | 0.69 | 0.00 | 81 | 1009.7 |
| 20260510081533 | 21 | 167 | 0.0 | 0.0 | 0.00 | 0.69 | 0.00 | 81 | 1009.7 |
| 20260510081033 | 21 | 167 | 0.0 | 0.0 | 0.00 | 0.69 | 0.00 | 81 | 1009.8 |
| 20260510080533 | 21 | 167 | 0.0 | 0.0 | 0.00 | 0.69 | 0.00 | 81 | 1009.8 |
| 20260510080033 | 21 | 167 | 0.0 | 0.0 | 0.00 | 0.69 | 0.00 | 81 | 1009.8 |
| 20260510075533 | 21 | 167 | 0.0 | 0.0 | 0.00 | 0.69 | 0.00 | 81 | 1010.1 |
| 20260510075033 | 21 | 167 | 0.0 | 0.0 | 0.00 | 0.69 | 0.00 | 81 | 1010.0 |
| 20260510074033 | 21 | 167 | 0.0 | 0.0 | 0.00 | 0.69 | 0.00 | 81 | 1010.0 |
| 20260510073533 | 21 | 167 | 0.0 | 0.0 | 0.00 | 0.69 | 0.00 | 81 | 1010.0 |
| 20260510072533 | 21 | 167 | 0.0 | 0.0 | 0.00 | 0.69 | 0.00 | 81 | 1010.0 |
| 20260510072033 | 21 | 167 | 0.0 | 0.0 | 0.00 | 0.69 | 0.00 | 80 | 1010.1 |
| 20260510071033 | 21 | 167 | 0.0 | 0.0 | 0.00 | 0.69 | 0.00 | 80 | 1010.2 |
| 20260510070533 | 21 | 167 | 0.0 | 0.0 | 0.00 | 0.69 | 0.00 | 80 | 1010.2 |
| 20260510065533 | 21 | 237 | 0.0 | 0.0 | 0.00 | 0.69 | 0.00 | 80 | 1010.1 |
| 20260510065032 | 21 | 237 | 0.0 | 0.0 | 0.00 | 0.69 | 0.00 | 80 | 1010.1 |
| 20260510064533 | 21 | 237 | 0.0 | 0.0 | 0.00 | 0.69 | 0.00 | 80 | 1010.0 |
| 20260510064032 | 21 | 237 | 0.0 | 0.0 | 0.00 | 0.69 | 0.00 | 80 | 1010.0 |
| 20260510063532 | 21 | 237 | 0.0 | 0.0 | 0.00 | 0.69 | 0.00 | 80 | 1009.9 |
| 20260510062532 | 21 | 237 | 0.0 | 0.0 | 0.00 | 0.69 | 0.00 | 80 | 1010.0 |
| 20260510062032 | 21 | 237 | 0.0 | 0.0 | 0.00 | 0.69 | 0.00 | 79 | 1009.9 |
| 20260510061532 | 21 | 237 | 0.0 | 0.0 | 0.00 | 0.69 | 0.00 | 79 | 1009.9 |
| 20260510061032 | 22 | 237 | 0.0 | 0.0 | 0.00 | 0.69 | 0.00 | 79 | 1009.8 |
| 20260510060532 | 22 | 215 | 0.0 | 1.6 | 0.00 | 0.69 | 0.00 | 79 | 1009.8 |
| 20260510060032 | 22 | 171 | 0.0 | 1.6 | 0.00 | 0.69 | 0.00 | 79 | 1009.9 |
| 20260510055532 | 22 | 145 | 0.0 | 0.0 | 0.00 | 0.69 | 0.00 | 79 | 1009.6 |
| 20260510054531 | 22 | 145 | 0.0 | 6.4 | 0.00 | 0.69 | 0.00 | 79 | 1009.6 |
| 20260510053531 | 22 | 121 | 0.0 | 6.4 | 0.00 | 0.69 | 0.00 | 79 | 1009.7 |
| 20260510053031 | 22 | 142 | 4.8 | 6.4 | 0.00 | 0.69 | 0.00 | 80 | 1009.8 |
| 20260510052531 | 22 | 111 | 3.2 | 3.2 | 0.00 | 0.69 | 0.00 | 80 | 1009.9 |
| 20260510052031 | 22 | 111 | 0.0 | 0.0 | 0.00 | 0.69 | 0.00 | 80 | 1009.9 |
| 20260510051031 | 22 | 111 | 0.0 | 0.0 | 0.00 | 0.69 | 0.00 | 80 | 1009.8 |
| 20260510050531 | 22 | 111 | 0.0 | 0.0 | 0.00 | 0.69 | 0.00 | 80 | 1009.8 |
| 20260510050031 | 22 | 111 | 0.0 | 0.0 | 0.00 | 0.69 | 0.00 | 80 | 1009.8 |
| 20260510045531 | 22 | 111 | 0.0 | 0.0 | 0.00 | 0.69 | 0.69 | 80 | 1009.6 |
| 20260510045031 | 22 | 111 | 0.0 | 0.0 | 0.00 | 0.69 | 0.69 | 80 | 1009.6 |
| 20260510044531 | 22 | 111 | 0.0 | 0.0 | 0.00 | 0.69 | 0.69 | 79 | 1009.5 |
| 20260510044031 | 22 | 111 | 0.0 | 0.0 | 0.00 | 0.69 | 0.69 | 79 | 1009.6 |
| 20260510043531 | 23 | 111 | 0.0 | 0.0 | 0.00 | 0.69 | 0.69 | 79 | 1009.7 |
| 20260510043031 | 23 | 111 | 0.0 | 0.0 | 0.00 | 0.69 | 0.69 | 79 | 1009.6 |
| 20260510042530 | 23 | 111 | 0.0 | 0.0 | 0.00 | 0.69 | 0.69 | 79 | 1009.6 |
| 20260510042030 | 23 | 111 | 0.0 | 3.2 | 0.00 | 0.69 | 0.69 | 79 | 1009.6 |
| 20260510041030 | 23 | 111 | 0.0 | 0.0 | 0.00 | 0.69 | 0.69 | 79 | 1009.5 |
| 20260510040530 | 23 | 111 | 0.0 | 0.0 | 0.00 | 0.69 | 0.69 | 79 | 1009.5 |
| 20260510040030 | 23 | 111 | 0.0 | 0.0 | 0.00 | 0.69 | 0.69 | 78 | 1009.5 |
| 20260510035030 | 24 | 111 | 0.0 | 0.0 | 0.00 | 0.69 | 0.69 | 78 | 1009.2 |
| 20260510034530 | 24 | 111 | 0.0 | 0.0 | 0.00 | 0.69 | 0.69 | 78 | 1009.2 |
| 20260510034030 | 24 | 111 | 0.0 | 0.0 | 0.00 | 0.69 | 0.69 | 77 | 1009.1 |
| 20260510033530 | 24 | 111 | 0.0 | 0.0 | 0.00 | 0.69 | 0.69 | 77 | 1009.1 |
| 20260510033030 | 25 | 111 | 0.0 | 0.0 | 0.00 | 0.69 | 0.69 | 77 | 1009.1 |
| 20260510032530 | 25 | 111 | 0.0 | 0.0 | 0.00 | 0.69 | 0.69 | 77 | 1009.1 |
| 20260510032030 | 25 | 111 | 0.0 | 0.0 | 0.00 | 0.69 | 0.69 | 77 | 1009.0 |
| 20260510031530 | 25 | 111 | 0.0 | 0.0 | 0.00 | 0.69 | 0.69 | 76 | 1008.9 |
| 20260510030530 | 25 | 111 | 0.0 | 0.0 | 0.00 | 0.69 | 0.69 | 76 | 1008.7 |
| 20260510030030 | 25 | 111 | 0.0 | 0.0 | 0.00 | 0.69 | 0.69 | 75 | 1008.6 |
| 20260510025530 | 25 | 111 | 0.0 | 0.0 | 0.00 | 0.69 | 0.69 | 75 | 1008.5 |
| 20260510025029 | 26 | 111 | 0.0 | 0.0 | 0.00 | 0.69 | 0.69 | 75 | 1008.4 |
| 20260510024530 | 26 | 111 | 0.0 | 0.0 | 0.00 | 0.69 | 0.69 | 75 | 1008.3 |
| 20260510024029 | 26 | 111 | 0.0 | 0.0 | 0.00 | 0.69 | 0.69 | 75 | 1008.3 |
| 20260510023530 | 26 | 111 | 0.0 | 1.6 | 0.00 | 0.69 | 0.69 | 74 | 1008.4 |
| 20260510023029 | 26 | 111 | 0.0 | 3.2 | 0.00 | 0.69 | 0.69 | 74 | 1008.3 |
| 20260510021529 | 27 | 128 | 0.0 | 1.6 | 0.00 | 0.69 | 0.69 | 73 | 1008.3 |
| 20260510021029 | 27 | 128 | 0.0 | 0.0 | 0.00 | 0.69 | 0.69 | 73 | 1008.2 |
| 20260510020029 | 27 | 128 | 0.0 | 6.4 | 0.00 | 0.69 | 0.69 | 73 | 1008.0 |
| 20260510015529 | 27 | 128 | 1.6 | 6.4 | 0.00 | 0.69 | 0.69 | 73 | 1007.9 |
| 20260510015029 | 27 | 155 | 0.0 | 1.6 | 0.00 | 0.69 | 0.69 | 72 | 1007.9 |
| 20260510014029 | 28 | 140 | 8.0 | 11.3 | 0.00 | 0.69 | 0.69 | 72 | 1007.8 |
| 20260510012529 | 28 | 134 | 4.8 | 6.4 | 0.00 | 0.69 | 0.69 | 71 | 1007.6 |
| 20260510011529 | 28 | 108 | 0.0 | 6.4 | 0.00 | 0.69 | 0.69 | 70 | 1007.5 |
| 20260510010028 | 29 | 143 | 0.0 | 3.2 | 0.00 | 0.69 | 0.69 | 69 | 1007.4 |
| 20260510005528 | 30 | 143 | 1.6 | 3.2 | 0.00 | 0.69 | 0.69 | 69 | 1007.5 |
| 20260510005028 | 30 | 133 | 0.0 | 0.0 | 0.00 | 0.69 | 0.69 | 69 | 1007.5 |
| 20260510004528 | 30 | 133 | 0.0 | 0.0 | 0.00 | 0.69 | 0.69 | 68 | 1007.5 |
| 20260510004028 | 30 | 90 | 0.0 | 0.0 | 0.00 | 0.69 | 0.69 | 69 | 1007.4 |
| 20260510002528 | 30 | 153 | 0.0 | 1.6 | 0.00 | 0.69 | 0.69 | 67 | 1007.3 |
| 20260510002028 | 30 | 105 | 0.0 | 4.8 | 0.00 | 0.69 | 0.69 | 68 | 1007.2 |
| 20260510001528 | 30 | 94 | 1.6 | 4.8 | 0.00 | 0.69 | 0.69 | 67 | 1007.3 |
| 20260510001028 | 30 | 119 | 0.0 | 4.8 | 0.00 | 0.69 | 0.69 | 67 | 1007.2 |
| 20260510000528 | 30 | 119 | 1.6 | 4.8 | 0.00 | 0.69 | 0.69 | 68 | 1007.2 |
| 20260510000028 | 30 | 127 | 0.0 | 1.6 | 0.00 | 0.69 | 0.69 | 66 | 1007.2 |
| 20260509235528 | 30 | 113 | 0.0 | 0.0 | 0.00 | 0.69 | 0.69 | 66 | 1007.1 |
| 20260509235028 | 30 | 115 | 0.0 | 3.2 | 0.00 | 0.69 | 0.69 | 67 | 1007.1 |
| 20260509234528 | 30 | 116 | 0.0 | 3.2 | 0.00 | 0.69 | 0.69 | 65 | 1007.0 |
| 20260509234027 | 30 | 139 | 0.0 | 4.8 | 0.00 | 0.69 | 0.69 | 66 | 1007.0 |
| 20260509233527 | 30 | 97 | 1.6 | 4.8 | 0.00 | 0.69 | 0.69 | 66 | 1006.9 |
| 20260509233027 | 30 | 123 | 0.0 | 4.8 | 0.00 | 0.69 | 0.69 | 66 | 1006.9 |
| 20260509232528 | 30 | 101 | 0.0 | 4.8 | 0.00 | 0.69 | 0.69 | 65 | 1006.9 |
| 20260509232027 | 30 | 119 | 0.0 | 4.8 | 0.00 | 0.69 | 0.69 | 66 | 1006.9 |
| 20260509230527 | 30 | 347 | 0.0 | 4.8 | 0.00 | 0.69 | 0.69 | 65 | 1007.0 |
| 20260509225527 | 30 | 117 | 3.2 | 6.4 | 0.00 | 0.69 | 0.69 | 65 | 1006.9 |
| 20260509225027 | 30 | 107 | 6.4 | 6.4 | 0.00 | 0.69 | 0.69 | 63 | 1006.9 |
| 20260509224527 | 30 | 156 | 3.2 | 3.2 | 0.00 | 0.69 | 0.69 | 64 | 1007.0 |
| 20260509224027 | 30 | 118 | 0.0 | 4.8 | 0.00 | 0.69 | 0.69 | 64 | 1006.9 |
| 20260509223527 | 30 | 95 | 0.0 | 9.7 | 0.00 | 0.69 | 0.69 | 64 | 1006.9 |
| 20260509223027 | 30 | 101 | 9.7 | 9.7 | 0.00 | 0.69 | 0.69 | 65 | 1006.9 |
| 20260509222527 | 30 | 107 | 0.0 | 4.8 | 0.00 | 0.69 | 0.69 | 65 | 1006.9 |
| 20260509222027 | 29 | 144 | 0.0 | 6.4 | 0.00 | 0.69 | 0.69 | 65 | 1006.8 |
| 20260509221527 | 29 | 96 | 3.2 | 9.7 | 0.00 | 0.69 | 0.69 | 64 | 1006.9 |
| 20260509221027 | 28 | 103 | 4.8 | 9.7 | 0.00 | 0.69 | 0.69 | 65 | 1006.7 |
| 20260509220527 | 28 | 116 | 1.6 | 3.2 | 0.00 | 0.69 | 0.69 | 66 | 1006.6 |
| 20260509220027 | 28 | 173 | 0.0 | 4.8 | 0.00 | 0.69 | 0.69 | 68 | 1006.6 |
| 20260509215527 | 27 | 229 | 3.2 | 4.8 | 0.00 | 0.69 | 0.69 | 69 | 1006.8 |
| 20260509215027 | 27 | 202 | 1.6 | 8.0 | 0.00 | 0.69 | 0.69 | 71 | 1006.8 |
| 20260509214026 | 25 | 251 | 1.6 | 3.2 | 0.00 | 0.69 | 0.69 | 73 | 1006.9 |
| 20260509213527 | 25 | 132 | 1.6 | 6.4 | 0.00 | 0.69 | 0.69 | 74 | 1007.0 |
| 20260509213027 | 24 | 215 | 4.8 | 6.4 | 0.00 | 0.69 | 0.69 | 75 | 1007.1 |
| 20260509212526 | 23 | 195 | 3.2 | 12.9 | 0.03 | 0.69 | 0.69 | 75 | 1007.0 |
| 20260509212027 | 23 | 178 | 3.2 | 12.9 | 0.08 | 0.69 | 0.69 | 76 | 1007.0 |
| 20260509211526 | 22 | 119 | 1.6 | 11.3 | 0.18 | 0.69 | 0.69 | 77 | 1007.2 |
| 20260509210027 | 22 | 232 | 1.6 | 8.0 | 0.61 | 0.69 | 0.69 | 79 | 1007.2 |
| 20260509205526 | 22 | 45 | 0.0 | 1.6 | 0.61 | 0.69 | 0.69 | 80 | 1007.2 |
| 20260509205026 | 22 | 183 | 0.0 | 4.8 | 0.61 | 0.69 | 0.69 | 80 | 1007.2 |
| 20260509204526 | 21 | 125 | 3.2 | 16.1 | 0.61 | 0.69 | 0.69 | 79 | 1007.1 |
| 20260509204026 | 22 | 130 | 11.3 | 16.1 | 0.61 | 0.69 | 0.69 | 78 | 1007.4 |
| 20260509203526 | 22 | 302 | 1.6 | 11.3 | 0.61 | 0.69 | 0.69 | 78 | 1007.5 |
| 20260509203026 | 22 | 230 | 1.6 | 11.3 | 0.61 | 0.69 | 0.69 | 76 | 1007.6 |
| 20260509202526 | 23 | 160 | 6.4 | 11.3 | 0.58 | 0.66 | 0.66 | 75 | 1007.9 |
| 20260509202026 | 25 | 135 | 0.0 | 16.1 | 0.53 | 0.61 | 0.61 | 72 | 1008.7 |
| 20260509201526 | 26 | 130 | 6.4 | 17.7 | 0.43 | 0.51 | 0.51 | 68 | 1008.7 |
| 20260509201025 | 28 | 115 | 9.7 | 17.7 | 0.15 | 0.23 | 0.23 | 71 | 1009.1 |
| 20260509200526 | 30 | 24 | 3.2 | 17.7 | 0.00 | 0.08 | 0.08 | 66 | 1008.5 |
| 20260509200026 | 31 | 5 | 4.8 | 6.4 | 0.00 | 0.08 | 0.08 | 66 | 1008.3 |
| 20260509195526 | 31 | 101 | 4.8 | 6.4 | 0.00 | 0.08 | 0.08 | 67 | 1008.0 |
| 20260509195025 | 31 | 122 | 0.0 | 12.9 | 0.00 | 0.08 | 0.08 | 68 | 1007.9 |
| 20260509194525 | 31 | 155 | 3.2 | 12.9 | 0.00 | 0.08 | 0.08 | 68 | 1007.8 |
| 20260509194025 | 31 | 160 | 1.6 | 6.4 | 0.00 | 0.08 | 0.08 | 68 | 1007.8 |
| 20260509193525 | 31 | 146 | 6.4 | 6.4 | 0.00 | 0.08 | 0.08 | 68 | 1007.9 |
| 20260509192525 | 31 | 222 | 3.2 | 14.5 | 0.00 | 0.08 | 0.08 | 69 | 1008.1 |
| 20260509192025 | 31 | 91 | 4.8 | 14.5 | 0.00 | 0.08 | 0.08 | 69 | 1008.1 |
| 20260509191024 | 31 | 140 | 11.3 | 11.3 | 0.00 | 0.08 | 0.08 | 69 | 1008.3 |
| 20260509190524 | 31 | 155 | 3.2 | 6.4 | 0.00 | 0.08 | 0.08 | 70 | 1008.2 |
| 20260509190024 | 31 | 238 | 0.0 | 6.4 | 0.00 | 0.08 | 0.08 | 71 | 1008.3 |
| 20260509185524 | 31 | 211 | 3.2 | 6.4 | 0.00 | 0.08 | 0.08 | 71 | 1008.4 |
| 20260509184524 | 30 | 333 | 0.0 | 9.7 | 0.00 | 0.08 | 0.08 | 72 | 1008.6 |
| 20260509184024 | 30 | 167 | 1.6 | 9.7 | 0.00 | 0.08 | 0.08 | 72 | 1008.8 |
| 20260509183524 | 30 | 219 | 0.0 | 4.8 | 0.00 | 0.08 | 0.08 | 74 | 1008.9 |
| 20260509182524 | 30 | 115 | 4.8 | 11.3 | 0.00 | 0.08 | 0.08 | 74 | 1009.1 |
| 20260509182024 | 30 | 184 | 1.6 | 4.8 | 0.00 | 0.08 | 0.08 | 75 | 1009.3 |
| 20260509181524 | 29 | 167 | 4.8 | 9.7 | 0.00 | 0.08 | 0.08 | 75 | 1009.3 |
| 20260509181024 | 29 | 119 | 4.8 | 9.7 | 0.00 | 0.08 | 0.08 | 75 | 1009.3 |
| 20260509180023 | 29 | 268 | 3.2 | 6.4 | 0.00 | 0.08 | 0.08 | 76 | 1009.3 |
| 20260509175523 | 29 | 319 | 1.6 | 4.8 | 0.00 | 0.08 | 0.08 | 76 | 1009.4 |
| 20260509175023 | 28 | 284 | 4.8 | 11.3 | 0.00 | 0.08 | 0.08 | 76 | 1009.3 |
| 20260509174523 | 28 | 233 | 1.6 | 11.3 | 0.00 | 0.08 | 0.08 | 76 | 1009.4 |
| 20260509174024 | 28 | 244 | 0.0 | 6.4 | 0.00 | 0.08 | 0.08 | 77 | 1009.7 |
| 20260509173524 | 28 | 330 | 1.6 | 4.8 | 0.00 | 0.08 | 0.08 | 77 | 1009.9 |
| 20260509173023 | 28 | 321 | 3.2 | 4.8 | 0.00 | 0.08 | 0.08 | 77 | 1009.9 |
| 20260509172523 | 28 | 213 | 0.0 | 4.8 | 0.00 | 0.08 | 0.08 | 77 | 1009.9 |
| 20260509172023 | 28 | 207 | 3.2 | 4.8 | 0.00 | 0.08 | 0.08 | 78 | 1009.8 |
| 20260509171523 | 28 | 180 | 1.6 | 4.8 | 0.00 | 0.08 | 0.08 | 78 | 1009.7 |